Waarnemingen

Advertentie
Mijn weer
Shoeburyness Landwick, Groot Brittannië (3693): temperatuur & dauwpunt: 26.03.2020 19:00:00 - 01.04.2020 19:00:00 (BST)Shoeburyness Landwick, Groot Brittannië (3693): temperatuur -20cm & temperatuur -100cm: 26.03.2020 19:00:00 - 01.04.2020 19:00:00 (BST)Shoeburyness Landwick, Groot Brittannië (3693): windsnelheid & windstoten: 26.03.2020 19:00:00 - 01.04.2020 19:00:00 (BST)Shoeburyness Landwick, Groot Brittannië (3693): windrichting: 26.03.2020 19:00:00 - 01.04.2020 19:00:00 (BST)Shoeburyness Landwick, Groot Brittannië (3693): luchtdruk: 26.03.2020 19:00:00 - 01.04.2020 19:00:00 (BST)Shoeburyness Landwick, Groot Brittannië (3693): zicht: 26.03.2020 19:00:00 - 01.04.2020 19:00:00 (BST)Shoeburyness Landwick, Groot Brittannië (3693): Zonneschijnduur: 26.03.2020 19:00:00 - 01.04.2020 19:00:00 (BST)Shoeburyness Landwick, Groot Brittannië (3693): neerslag: 26.03.2020 19:00:00 - 01.04.2020 19:00:00 (BST)
Datum & Tijd tt [°C] td [°C] tt -20cm [°C] tt -100cm [°C] ff [km/u] ff [kn] fx [km/u] fx [kn] dd ppp [hPa] vv [km] sd [min] rr [mm]
01.04.2020 19:00:00 7,8 0,7 - - 9 5 - - NW 1020,1 40 0 0,0
01.04.2020 18:00:00 7,6 1,1 - - 8 4 - - ZZW 1020,5 45 0 0,0
01.04.2020 17:00:00 7,7 1,3 - - 5 3 - - Z 1020,7 50 0 0,0
01.04.2020 16:00:00 8,0 1,7 - - 5 3 - - ZO 1021,4 50 0 0,0
01.04.2020 15:00:00 8,2 1,2 - - 11 6 - - ZZO 1022,1 50 0 0,0
01.04.2020 14:00:00 7,2 1,0 - - 8 4 - - ZZO 1022,8 50 0 0,0
01.04.2020 13:00:00 7,4 1,0 - - 11 6 - - Z 1023,1 40 42 0,0
01.04.2020 12:00:00 8,4 1,1 - - 4 2 - - Z 1023,9 35 60 0,0
01.04.2020 11:00:00 7,2 -0,3 - - 5 3 - - N 1024,7 40 60 0,0
01.04.2020 10:00:00 6,2 1,2 6,7 8,5 8 4 - - N 1025,2 30 60 0,0
01.04.2020 09:00:00 3,9 1,9 - - 9 5 - - N 1025,4 30 60 0,0
01.04.2020 08:00:00 0,8 0,3 - - 8 4 - - NNW 1025,7 21 60 0,0
01.04.2020 07:00:00 -1,6 -2,1 - - 9 5 - - NNW 1025,8 20 0 0,0
01.04.2020 06:00:00 -1,8 -2,3 - - 9 5 - - NNW 1025,9 19 0 0,0
01.04.2020 05:00:00 -1,7 -2,4 - - 9 5 - - NW 1026,3 20 0 0,0
01.04.2020 04:00:00 -1,8 -2,5 - - 9 5 - - NNW 1026,7 17 0 0,0
01.04.2020 03:00:00 -0,9 -1,7 - - 8 4 - - NNW 1027,3 24 0 0,0
01.04.2020 02:00:00 -0,2 -1,3 - - 8 4 - - N 1027,8 17 0 0,0
01.04.2020 01:00:00 1,0 -0,2 - - 11 6 - - NO 1028,5 17 - 0,0
01.04.2020 00:00:00 1,5 0,3 - - 11 6 - - NNO 1029,1 22 0 0,0
31.03.2020 23:00:00 2,8 0,0 - - 15 8 - - ONO 1029,4 50 0 0,0
31.03.2020 22:00:00 2,1 -0,9 - - 9 5 - - ONO 1029,7 40 0 0,0
31.03.2020 21:00:00 4,6 0,2 - - 18 10 - - O 1030,0 50 0 0,0
31.03.2020 20:00:00 5,0 0,0 - - 18 10 - - O 1030,1 50 24 0,0
31.03.2020 19:00:00 6,1 0,2 - - 21 11 - - O 1030,3 45 60 0,0
31.03.2020 18:00:00 7,3 0,3 - - 21 11 - - O 1030,5 50 60 0,0
31.03.2020 17:00:00 7,6 0,0 - - 24 13 - - O 1030,8 35 60 -
31.03.2020 16:00:00 8,1 0,2 - - 22 12 - - O 1031,1 40 60 0,0
31.03.2020 15:00:00 8,6 2,2 - - 21 11 - - O 1031,6 28 60 0,0
31.03.2020 14:00:00 9,1 3,2 - - 22 12 - - O 1032,0 21 60 0,0
31.03.2020 13:00:00 9,1 2,5 - - 22 12 - - O 1032,3 30 54 0,0
31.03.2020 12:00:00 8,5 3,1 - - 22 12 - - O 1032,3 40 54 0,0
31.03.2020 11:00:00 8,4 2,9 - - 26 14 - - O 1032,7 28 54 0,2
31.03.2020 10:00:00 7,9 5,1 6,7 8,5 26 14 - - NO 1032,7 28 60 0,0
31.03.2020 09:00:00 5,2 3,5 - - 24 13 - - NO 1032,2 20 48 0,0
31.03.2020 08:00:00 4,4 3,1 - - 22 12 - - NO 1032,0 25 48 0,0
31.03.2020 07:00:00 3,4 2,3 - - 21 11 - - NNO 1031,4 20 0 0,0
31.03.2020 06:00:00 3,1 2,3 - - 15 8 - - NNO 1031,2 16 0 0,0
31.03.2020 05:00:00 2,4 1,4 - - 16 9 - - N 1031,0 15 0 0,0
31.03.2020 04:00:00 3,5 2,5 - - 18 10 - - N 1031,0 17 0 0,0
31.03.2020 03:00:00 2,8 1,8 - - 16 9 - - N 1031,1 18 0 0,0
31.03.2020 02:00:00 3,1 2,1 - - 16 9 - - N 1031,2 16 0 0,0
31.03.2020 01:00:00 4,2 2,6 - - 16 9 - - NNO 1031,4 30 - 0,0
31.03.2020 00:00:00 3,6 2,3 - - 15 8 - - N 1031,4 19 0 0,0
30.03.2020 23:00:00 4,2 2,4 - - 16 9 - - N 1031,4 18 0 0,0
30.03.2020 22:00:00 4,3 2,8 - - 16 9 - - NNO 1031,3 30 0 0,0
30.03.2020 21:00:00 5,5 3,9 - - 21 11 - - NNO 1031,1 30 0 0,2
30.03.2020 20:00:00 6,2 4,2 - - 21 11 48 26 NNO 1030,9 17 0 0,0
30.03.2020 19:00:00 7,6 3,6 - - 21 11 - - NNO 1030,7 30 6 0,0
30.03.2020 18:00:00 7,5 3,6 - - 18 10 - - NO 1031,1 23 0 0,0
30.03.2020 17:00:00 7,5 3,0 - - 21 11 - - O 1031,3 35 12 0,2
30.03.2020 16:00:00 7,8 3,1 - - 18 10 - - O 1031,9 24 18 0,0
30.03.2020 15:00:00 7,3 3,2 - - 21 11 - - O 1032,1 30 6 0,6
30.03.2020 14:00:00 8,0 2,9 - - 18 10 - - N 1032,5 35 0 0,0
30.03.2020 13:00:00 7,8 2,6 - - 13 7 - - N 1033,1 35 30 0,0
30.03.2020 12:00:00 8,1 3,4 - - 16 9 - - N 1033,7 30 24 0,0
30.03.2020 11:00:00 6,3 1,5 - - 18 10 - - N 1034,4 45 24 0,0
30.03.2020 10:00:00 5,9 0,9 6,4 8,7 18 10 - - N 1034,8 22 48 0,0
30.03.2020 09:00:00 4,0 0,5 - - 15 8 - - N 1035,2 30 18 0,0
30.03.2020 08:00:00 2,7 0,7 - - 9 5 - - NNW 1035,5 29 0 0,0
30.03.2020 07:00:00 1,8 0,3 - - 15 8 - - N 1035,8 30 0 0,0
30.03.2020 06:00:00 1,4 -0,8 - - 15 8 - - N 1035,9 30 0 0,0
30.03.2020 05:00:00 2,4 -0,6 - - 18 10 - - N 1036,1 45 0 0,0
30.03.2020 04:00:00 2,9 -0,6 - - 16 9 - - N 1036,6 50 0 0,0
30.03.2020 03:00:00 2,7 -1,1 - - 15 8 - - N 1037,2 35 0 0,0
30.03.2020 02:00:00 1,9 -2,2 - - 15 8 - - N 1037,8 40 0 0,0
30.03.2020 01:00:00 2,1 -2,2 - - 15 8 - - N 1038,2 40 - 0,0
30.03.2020 00:00:00 2,6 -3,4 - - 21 11 - - NNO 1038,4 45 0 0,0
29.03.2020 23:00:00 3,4 -3,7 - - 26 14 - - NNO 1038,7 45 0 0,0
29.03.2020 22:00:00 3,2 -3,0 - - 22 12 - - NNO 1039,0 40 0 0,0
29.03.2020 21:00:00 2,8 -3,2 - - 24 13 50 27 NNO 1039,1 45 0 0,0
29.03.2020 20:00:00 3,7 -3,8 - - 34 18 54 29 NNO 1038,7 50 6 0,0
29.03.2020 19:00:00 4,2 -4,2 - - 39 21 59 32 NO 1038,2 50 18 0,0
29.03.2020 18:00:00 5,4 -2,2 - - 42 23 59 32 NO 1037,7 35 6 0,0
29.03.2020 17:00:00 6,0 -2,5 - - 39 21 59 32 NO 1037,7 30 6 0,0
29.03.2020 16:00:00 5,6 -2,4 - - 42 23 61 33 ONO 1037,4 30 24 0,0
29.03.2020 15:00:00 5,6 1,5 - - 39 21 55 30 NNO 1037,3 40 36 0,2
29.03.2020 14:00:00 3,0 1,4 - - 48 26 81 44 NO 1037,5 30 24 0,6
29.03.2020 13:00:00 4,3 1,0 - - 42 23 83 45 NO 1037,2 25 24 0,4
29.03.2020 12:00:00 7,6 -0,1 - - 41 22 68 37 NO 1036,7 24 36 0,0
29.03.2020 11:00:00 6,8 1,5 - - 39 21 59 32 NNO 1036,1 35 60 0,0
29.03.2020 10:00:00 4,8 2,2 7,2 8,7 41 22 72 39 NNO 1036,0 35 18 0,0
29.03.2020 09:00:00 5,0 -2,1 - - 37 20 46 25 NNO 1035,3 19 6 0,0
29.03.2020 08:00:00 3,8 -1,9 - - 24 13 - - N 1035,0 25 30 0,0
29.03.2020 07:00:00 3,5 -1,9 - - 22 12 - - NNO 1034,5 25 0 0,0
29.03.2020 06:00:00 4,0 -1,4 - - 24 13 - - N 1034,4 25 0 0,0
29.03.2020 05:00:00 4,2 -1,6 - - 34 18 46 25 NNO 1034,2 23 0 0,0
29.03.2020 04:00:00 4,6 -2,4 - - 35 19 - - NNO 1034,1 25 0 0,0
29.03.2020 03:00:00 4,0 -0,7 - - 28 15 - - NNO 1034,1 17 0 0,0
29.03.2020 02:00:00 4,1 -0,7 - - 31 17 - - NNO 1034,2 19 0 0,0
29.03.2020 01:00:00 4,1 0,4 - - 29 16 - - NNO 1033,8 20 - 0,0
29.03.2020 00:00:00 4,9 1,5 - - 31 17 46 25 NNO 1033,3 21 0 0,0
28.03.2020 23:00:00 5,1 1,5 - - 28 15 - - NNO 1032,9 30 0 0,0
28.03.2020 22:00:00 5,5 1,1 - - 34 18 - - NNO 1032,4 26 0 0,0
28.03.2020 21:00:00 6,0 0,8 - - 31 17 52 28 NNO 1032,0 30 0 0,0
28.03.2020 20:00:00 6,6 1,2 - - 37 20 46 25 NNO 1031,3 27 0 0,0
28.03.2020 19:00:00 7,9 1,1 - - 34 18 54 29 NO 1030,6 26 48 0,0
28.03.2020 18:00:00 8,8 1,1 - - 35 19 54 29 NO 1029,7 50 54 0,0
28.03.2020 17:00:00 8,8 3,5 - - 35 19 52 28 ONO 1029,6 26 18 0,0
28.03.2020 16:00:00 9,1 4,0 - - 35 19 52 28 ONO 1029,4 17 24 0,0
28.03.2020 15:00:00 8,6 3,1 - - 34 18 52 28 NO 1029,3 25 0 0,0
28.03.2020 14:00:00 8,9 3,9 - - 39 21 52 28 NO 1029,4 27 6 0,0
28.03.2020 13:00:00 9,7 3,9 - - 37 20 52 28 ONO 1029,0 23 36 0,0
28.03.2020 12:00:00 9,8 3,2 - - 39 21 54 29 NO 1028,3 22 60 0,0
28.03.2020 11:00:00 9,6 2,9 - - 39 21 52 28 NO 1027,6 12 60 0,0
28.03.2020 10:00:00 8,5 3,8 7,4 8,7 37 20 50 27 NO 1027,0 11 60 0,0
28.03.2020 09:00:00 7,0 3,3 - - 34 18 48 26 NO 1026,3 9 60 0,0
28.03.2020 08:00:00 5,7 3,3 - - 28 15 - - NNO 1025,7 9 24 0,0
28.03.2020 07:00:00 5,0 2,9 - - 26 14 - - NNO 1025,1 9 0 0,0
28.03.2020 06:00:00 5,0 2,5 - - 26 14 - - NNO 1024,8 12 0 0,0
28.03.2020 05:00:00 5,1 2,5 - - 26 14 - - NNO 1024,4 12 0 0,0
28.03.2020 04:00:00 5,3 2,9 - - 22 12 - - NNO 1024,3 12 0 0,0
28.03.2020 03:00:00 5,4 2,9 - - 24 13 - - NNO 1024,2 11 0 0,0
28.03.2020 02:00:00 5,4 2,9 - - 24 13 - - NNO 1024,2 11 0 0,0
28.03.2020 01:00:00 5,4 2,4 - - 22 12 - - NNO 1024,2 12 - 0,0
28.03.2020 00:00:00 5,4 2,0 - - 22 12 - - NNO 1024,1 13 0 0,0
27.03.2020 23:00:00 5,6 2,3 - - 24 13 - - NNO 1024,2 11 0 0,0
27.03.2020 22:00:00 6,1 1,4 - - 22 12 - - NNO 1024,0 14 0 0,0
27.03.2020 21:00:00 6,6 0,2 - - 24 13 - - NNO 1023,7 19 0 0,0
27.03.2020 20:00:00 7,7 -0,3 - - 21 11 - - NNO 1023,3 30 6 0,0
27.03.2020 19:00:00 9,0 0,7 - - 21 11 - - NO 1022,7 35 60 0,0
27.03.2020 18:00:00 10,0 2,1 - - 24 13 - - ONO 1022,3 22 60 0,0
27.03.2020 17:00:00 11,0 1,5 - - 28 15 - - ONO 1022,1 26 60 0,0
27.03.2020 16:00:00 11,7 0,9 - - 34 18 50 27 ONO 1022,3 20 60 0,0
27.03.2020 15:00:00 11,5 0,2 - - 34 18 50 27 ONO 1022,9 21 60 0,0
27.03.2020 14:00:00 11,5 0,3 - - 35 19 50 27 ONO 1023,2 22 60 0,0
27.03.2020 13:00:00 10,9 0,6 - - 37 20 48 26 ONO 1023,6 25 60 0,0
27.03.2020 12:00:00 10,4 1,8 - - 37 20 50 27 ONO 1023,7 18 60 0,0
27.03.2020 11:00:00 9,6 4,2 - - 31 17 46 25 NO 1023,8 12 60 0,0
27.03.2020 10:00:00 8,3 5,2 7,0 8,7 28 15 - - NO 1023,5 9 60 0,0
27.03.2020 09:00:00 6,4 4,8 - - 21 11 - - NO 1023,3 7 60 0,0
27.03.2020 08:00:00 4,5 3,7 - - 16 9 - - NNO 1023,1 5 36 0,0
27.03.2020 07:00:00 2,8 2,1 - - 15 8 - - N 1023,1 3,5 0 0,0
27.03.2020 06:00:00 3,1 2,4 - - 13 7 - - NNO 1022,9 3,8 0 0,0
27.03.2020 05:00:00 3,3 2,6 - - 13 7 - - NNO 1023,0 4,1 0 0,0
27.03.2020 04:00:00 3,3 2,5 - - 15 8 - - NNO 1022,9 5 0 0,0
27.03.2020 03:00:00 3,4 2,4 - - 16 9 - - NNO 1023,0 5 0 0,0
27.03.2020 02:00:00 3,4 2,3 - - 15 8 - - NNO 1023,2 6 0 0,0
27.03.2020 01:00:00 3,0 1,6 - - 16 9 - - NNO 1023,3 7 - 0,0
27.03.2020 00:00:00 2,2 1,1 - - 15 8 - - N 1023,5 7 0 0,0
26.03.2020 23:00:00 3,1 1,0 - - 13 7 - - NNO 1023,5 9 0 0,0
26.03.2020 22:00:00 3,0 1,3 - - 13 7 - - NO 1023,5 8 0 0,0
26.03.2020 21:00:00 2,9 0,8 - - 13 7 - - NO 1023,7 10 0 0,0
26.03.2020 20:00:00 4,9 0,8 - - 15 8 - - ONO 1023,2 18 6 0,0
26.03.2020 19:00:00 - - - - - - - - - - - - -

tt = temperatuur
td = dauwpunt
tt -20cm = temperatuur -20cm
tt -100cm = temperatuur -100cm
ff = windsnelheid
fx = windstoten
dd = windrichting
ppp = luchtdruk
vv = zicht
sd = Zonneschijnduur
rr = neerslag

Weerstations in de omgeving